Back to catalog

FENGYUN 1C DEB

AliveSSO
NORAD 29967·DEBRIS·🇨🇳 China

Launched May 10, 1999 from Taiyuan Satellite Launch Center

Loading…

Next Passes (next 24 hours)

TLE

AgingSource: Space-Track

Epoch: Sep 11, 2026, 04:26 UTC

1 29967U 99025KR  26254.18537325  .00002031  00000-0  85842-3 0  9997
2 29967  98.8545 338.0815 0074779 225.1025 164.5921 14.25184656 10699

Track FENGYUN 1C DEB in real time with AllMySat

Download on the App Store